EW5925 Weather Reports


time (UTC)temp
C
wind
direction
speed
KPH
gust
KPH
rain 1hr
cm
rain 24hr
cm
rain mn
cm
humidity
%
barometer
mb
20260509031029 24 227 4.8 22.5 0.00 0.00 0.00 46 1021.4
20260509030743 24 156 6.4 22.5 0.00 0.00 0.00 47 1021.5
20260509030033 24 166 6.4 16.1 0.00 0.00 0.00 47 1021.5
20260509025502 24 162 6.4 16.1 0.00 0.00 0.00 48 1021.6
20260509024947 24 123 4.8 16.1 0.00 0.00 0.00 48 1021.6
20260509024721 24 114 4.8 16.1 0.00 0.00 0.00 48 1021.7
20260509023949 24 126 6.4 19.3 0.00 0.00 0.00 49 1021.7
20260509023442 24 110 6.4 19.3 0.00 0.00 0.00 48 1021.9
20260509022928 24 116 6.4 12.9 0.00 0.00 0.00 49 1021.9
20260509022428 24 115 4.8 12.9 0.00 0.00 0.00 49 1022.0
20260509021911 24 99 4.8 12.9 0.00 0.00 0.00 50 1022.0
20260509021336 24 122 6.4 14.5 0.00 0.00 0.00 50 1022.1
20260509020830 23 212 6.4 14.5 0.00 0.00 0.00 51 1022.2
20260509020550 23 163 4.8 14.5 0.00 0.00 0.00 52 1022.2
20260509015829 23 145 4.8 12.9 0.00 0.00 0.00 52 1022.3
20260509015315 23 135 4.8 12.9 0.00 0.00 0.00 53 1022.4
20260509014813 23 116 4.8 11.3 0.00 0.00 0.00 53 1022.4
20260509014327 22 134 3.2 8.0 0.00 0.00 0.00 55 1022.5
20260509013810 22 208 3.2 9.7 0.00 0.00 0.00 55 1022.6
20260509013320 22 189 4.8 9.7 0.00 0.00 0.00 55 1022.7
20260509012812 22 202 4.8 9.7 0.00 0.00 0.00 55 1022.7
20260509012309 22 180 4.8 11.3 0.00 0.00 0.00 55 1022.9
20260509011809 22 165 4.8 12.9 0.00 0.00 0.00 54 1022.9
20260509011538 22 175 4.8 12.9 0.00 0.00 0.00 54 1023.0
20260509010757 22 195 4.8 14.5 0.00 0.00 0.00 54 1023.1
20260509010302 22 108 4.8 14.5 0.00 0.00 0.00 55 1023.1
20260509005800 22 99 4.8 12.9 0.00 0.00 0.00 54 1023.1
20260509005300 22 159 3.2 12.9 0.00 0.00 0.00 54 1023.1
20260509005031 22 185 3.2 8.0 0.00 0.00 0.00 53 1023.2
20260509004521 22 161 3.2 8.0 0.00 0.00 0.00 53 1023.2
20260509003805 22 195 4.8 12.9 0.00 0.00 0.00 54 1023.3
20260509003253 21 175 6.4 14.5 0.00 0.00 0.00 53 1023.3
20260509002750 21 93 3.2 14.5 0.00 0.00 0.00 53 1023.3
20260509002250 21 192 3.2 12.9 0.00 0.00 0.00 55 1023.3
20260509001750 21 255 3.2 8.0 0.00 0.00 0.00 55 1023.3
20260509001252 21 215 3.2 8.0 0.00 0.00 0.00 58 1023.4
20260509000730 21 122 4.8 8.0 0.00 0.00 0.00 58 1023.4
20260509000223 21 236 4.8 9.7 0.00 0.00 0.00 59 1023.3
20260508235658 20 185 4.8 9.7 0.00 0.00 0.00 59 1023.3
20260508235204 20 246 3.2 9.7 0.00 0.00 0.00 61 1023.4
20260508234648 20 196 3.2 6.4 0.00 0.00 0.00 64 1023.4
20260508234136 19 157 3.2 6.4 0.00 0.00 0.00 63 1023.4
20260508233609 18 203 3.2 6.4 0.00 0.00 0.00 64 1023.4
20260508233109 18 202 3.2 6.4 0.00 0.00 0.00 66 1023.4
20260508232617 17 238 3.2 6.4 0.00 0.00 0.00 67 1023.3
20260508232105 17 238 3.2 8.0 0.00 0.00 0.00 67 1023.3
20260508231749 17 245 3.2 8.0 0.00 0.00 0.00 68 1023.2
20260508231006 16 199 3.2 6.4 0.00 0.00 0.00 68 1023.2
20260508230509 16 246 3.2 12.9 0.00 0.00 0.00 69 1023.1
20260508230008 15 249 4.8 12.9 0.00 0.00 0.00 69 1023.1
20260508225502 15 211 4.8 14.5 0.00 0.00 0.00 69 1023.1
20260508224953 15 206 4.8 14.5 0.00 0.00 0.00 69 1023.0
20260508224503 15 213 3.2 8.0 0.00 0.00 0.00 70 1022.9
20260508223953 14 243 1.6 9.7 0.00 0.00 0.00 70 1022.9
20260508223505 14 189 3.2 9.7 0.00 0.00 0.00 70 1022.9
20260508223007 14 234 3.2 8.0 0.00 0.00 0.00 70 1022.8
20260508222449 14 230 3.2 8.0 0.00 0.00 0.00 71 1022.7
20260508221948 13 235 3.2 8.0 0.00 0.00 0.00 72 1022.7
20260508221442 13 227 3.2 8.0 0.00 0.00 0.00 72 1022.6
20260508220947 13 227 3.2 8.0 0.00 0.00 0.00 73 1022.6
20260508220444 12 230 3.2 6.4 0.00 0.00 0.00 74 1022.6
20260508220440 13 222 3.2 8.0 0.00 0.00 0.00 73 1022.6
20260508215439 12 228 3.2 8.0 0.00 0.00 0.00 74 1022.4
20260508215205 12 200 3.2 8.0 0.00 0.00 0.00 75 1022.5
20260508214437 12 227 1.6 6.4 0.00 0.00 0.00 75 1022.3
20260508214159 11 212 1.6 6.4 0.00 0.00 0.00 76 1022.2
20260508213440 11 250 1.6 8.0 0.00 0.00 0.00 77 1022.2
20260508213203 11 237 1.6 8.0 0.00 0.00 0.00 77 1022.1
20260508212433 11 235 1.6 4.8 0.00 0.00 0.00 77 1022.1
20260508211935 10 235 1.6 4.8 0.00 0.00 0.00 77 1022.0
20260508211431 10 235 1.6 6.4 0.00 0.00 0.00 77 1021.9
20260508210931 10 235 1.6 6.4 0.00 0.00 0.00 77 1022.0
20260508210429 10 263 1.6 6.4 0.00 0.00 0.00 77 1022.0
20260508205921 10 263 1.6 6.4 0.00 0.00 0.00 77 1021.9
20260508205642 10 263 3.2 6.4 0.00 0.00 0.00 77 1021.8
20260508204917 10 233 1.6 6.4 0.00 0.00 0.00 77 1021.7
20260508204419 10 233 1.6 6.4 0.00 0.00 0.00 77 1021.6
20260508203913 10 233 1.6 6.4 0.00 0.00 0.00 77 1021.5
20260508203413 10 233 1.6 6.4 0.00 0.00 0.00 77 1021.6
20260508202911 9 233 1.6 6.4 0.00 0.00 0.00 77 1021.6
20260508202638 9 233 1.6 6.4 0.00 0.00 0.00 77 1021.5
20260508201906 9 233 0.0 3.2 0.00 0.00 0.00 78 1021.5
20260508201405 9 234 1.6 6.4 0.00 0.00 0.00 78 1021.4
20260508200902 9 234 1.6 6.4 0.00 0.00 0.00 78 1021.4
20260508200401 9 234 1.6 3.2 0.00 0.00 0.00 78 1021.3
20260508195901 9 234 1.6 3.2 0.00 0.00 0.00 78 1021.2
20260508195355 9 234 0.0 4.8 0.00 0.00 0.00 79 1021.1
20260508194854 9 234 1.6 4.8 0.00 0.00 0.00 79 1021.0
20260508194359 9 234 1.6 4.8 0.00 0.00 0.00 78 1021.0
20260508193854 9 234 1.6 6.4 0.00 0.00 0.00 79 1020.9
20260508193616 9 234 0.0 6.4 0.00 0.00 0.00 79 1020.9
20260508192854 9 234 0.0 3.2 0.00 0.00 0.00 80 1020.9
20260508192350 9 234 0.0 3.2 0.00 0.00 0.00 80 1020.7
20260508191850 9 234 0.0 3.2 0.00 0.00 0.00 80 1020.6
20260508191347 9 234 0.0 1.6 0.00 0.00 0.00 80 1020.6
20260508190850 9 234 0.0 3.2 0.00 0.00 0.00 81 1020.6
20260508190326 9 234 0.0 3.2 0.00 0.00 0.00 81 1020.6
20260508185829 9 234 0.0 3.2 0.00 0.00 0.00 81 1020.5
20260508185309 9 234 0.0 3.2 0.00 0.00 0.00 82 1020.5
20260508184811 9 234 0.0 3.2 0.00 0.00 0.00 82 1020.5
20260508184245 9 234 0.0 3.2 0.00 0.00 0.00 83 1020.4
20260508184009 8 234 1.6 4.8 0.00 0.00 0.00 84 1020.4
20260508183241 8 234 1.6 4.8 0.00 0.00 0.00 84 1020.3
20260508182739 8 234 1.6 6.4 0.00 0.00 0.00 86 1020.3
20260508182237 8 234 1.6 6.4 0.00 0.00 0.00 86 1020.3
20260508181735 8 123 1.6 4.8 0.00 0.00 0.00 87 1020.4
20260508181238 8 123 0.0 4.8 0.00 0.00 0.00 88 1020.3
20260508180732 8 123 1.6 3.2 0.00 0.00 0.00 88 1020.3
20260508180231 8 123 1.6 3.2 0.00 0.00 0.00 89 1020.2
20260508175731 8 123 0.0 3.2 0.00 0.00 0.00 89 1020.3
20260508175228 8 123 0.0 4.8 0.00 0.00 0.00 89 1020.4
20260508174944 8 123 0.0 4.8 0.00 0.00 0.00 89 1020.4
20260508174227 8 123 0.0 3.2 0.00 0.00 0.00 89 1020.3
20260508173728 8 123 1.6 3.2 0.00 0.00 0.00 89 1020.4
20260508173202 8 123 1.6 3.2 0.00 0.00 0.00 89 1020.3
20260508172636 8 123 0.0 3.2 0.00 0.00 0.00 89 1020.3
20260508172111 8 123 0.0 1.6 0.00 0.00 0.00 89 1020.3
20260508171545 8 123 0.0 1.6 0.00 0.00 0.00 89 1020.3
20260508171237 8 123 0.0 1.6 0.00 0.00 0.00 89 1020.2
20260508170452 8 123 0.0 1.6 0.00 0.00 0.00 88 1020.2
20260508165928 8 123 0.0 1.6 0.00 0.00 0.00 89 1020.2
20260508165402 8 123 0.0 1.6 0.00 0.00 0.00 89 1020.2
20260508164838 8 123 0.0 1.6 0.00 0.00 0.00 88 1020.1
20260508164310 8 123 0.0 0.0 0.00 0.00 0.00 88 1020.2
20260508164011 8 123 0.0 0.0 0.00 0.00 0.00 88 1020.2
20260508163218 8 123 0.0 0.0 0.00 0.00 0.00 88 1020.2
20260508162653 8 123 0.0 0.0 0.00 0.00 0.00 88 1020.2
20260508162153 8 123 0.0 0.0 0.00 0.00 0.00 88 1020.1
20260508161652 8 123 0.0 0.0 0.00 0.00 0.00 88 1020.0
20260508161152 8 123 0.0 0.0 0.00 0.00 0.00 88 1020.0
20260508160646 8 123 0.0 0.0 0.00 0.00 0.00 88 1020.1
20260508160146 8 123 0.0 0.0 0.00 0.00 0.00 88 1020.1
20260508155638 8 123 0.0 0.0 0.00 0.00 0.00 88 1020.1
20260508155137 8 123 0.0 0.0 0.00 0.00 0.00 88 1020.2
20260508154630 8 123 0.0 0.0 0.00 0.00 0.00 88 1020.1
20260508154130 8 123 0.0 0.0 0.00 0.00 0.00 88 1020.1
20260508153630 8 123 0.0 0.0 0.00 0.00 0.00 88 1020.1
20260508153129 8 123 0.0 0.0 0.00 0.00 0.00 88 1020.1
20260508152626 8 123 0.0 0.0 0.00 0.00 0.00 88 1020.1
20260508152126 8 123 0.0 0.0 0.00 0.00 0.00 88 1020.1
20260508151624 8 123 0.0 0.0 0.00 0.00 0.00 88 1020.0
20260508151122 8 123 0.0 3.2 0.00 0.00 0.00 88 1020.0
20260508150851 8 123 0.0 3.2 0.00 0.00 0.00 88 1020.0
20260508145754 8 123 1.6 4.8 0.00 0.00 0.00 88 1019.9
20260508145034 8 123 0.0 3.2 0.00 0.00 0.00 88 1020.0
20260508144756 8 123 0.0 3.2 0.00 0.00 0.00 88 1020.0
20260508144028 8 123 1.6 3.2 0.00 0.00 0.00 88 1019.9
20260508143528 8 123 1.6 3.2 0.00 0.00 0.00 88 1019.9
20260508143250 8 123 1.6 3.2 0.00 0.00 0.00 88 1020.0
20260508142526 8 123 0.0 3.2 0.00 0.00 0.00 87 1019.9
20260508142253 8 123 0.0 3.2 0.00 0.00 0.00 87 1019.9
20260508141535 8 123 0.0 3.2 0.00 0.00 0.00 87 1019.9
20260508141024 8 123 0.0 3.2 0.00 0.00 0.00 87 1019.9
20260508140522 8 123 0.0 3.2 0.00 0.00 0.00 87 1019.9
20260508140244 9 123 0.0 3.2 0.00 0.00 0.00 87 1019.9
20260508135957 9 123 0.0 1.6 0.00 0.00 0.00 87 1019.8
20260508135014 9 123 0.0 1.6 0.00 0.00 0.00 87 1019.8
20260508134514 9 123 0.0 1.6 0.00 0.00 0.00 87 1019.8
20260508134014 9 123 0.0 1.6 0.00 0.00 0.00 87 1019.7
20260508133517 9 123 0.0 1.6 0.00 0.00 0.00 87 1019.6
20260508132949 9 123 0.0 1.6 0.00 0.00 0.00 87 1019.5
20260508132909 9 123 0.0 1.6 0.00 0.00 0.00 87 1019.5
20260508131859 9 123 1.6 3.2 0.00 0.00 0.00 86 1019.5
20260508131337 9 123 1.6 3.2 0.00 0.00 0.00 87 1019.5
20260508130808 9 123 1.6 4.8 0.00 0.00 0.00 86 1019.5
20260508130244 10 123 1.6 4.8 0.00 0.00 0.00 86 1019.4
20260508125717 10 8 1.6 3.2 0.00 0.00 0.00 85 1019.4
20260508125151 10 8 0.0 3.2 0.00 0.00 0.00 85 1019.4
20260508124850 10 8 0.0 3.2 0.00 0.00 0.00 85 1019.4
20260508124055 10 8 1.6 3.2 0.00 0.00 0.00 85 1019.4
20260508123528 10 8 1.6 3.2 0.00 0.00 0.00 84 1019.4
20260508123014 10 8 1.6 3.2 0.00 0.00 0.00 84 1019.5
20260508122514 10 8 0.0 1.6 0.00 0.00 0.00 84 1019.5
20260508121958 10 8 0.0 1.6 0.00 0.00 0.00 84 1019.6
20260508121457 10 8 0.0 1.6 0.00 0.00 0.00 84 1019.5
20260508121005 10 8 0.0 1.6 0.00 0.00 0.00 83 1019.5
20260508120450 10 8 0.0 1.6 0.00 0.00 0.00 83 1019.5
20260508115948 10 8 0.0 0.0 0.00 0.00 0.00 83 1019.5
20260508115449 10 8 0.0 1.6 0.00 0.00 0.00 83 1019.6
20260508114946 10 8 0.0 1.6 0.00 0.00 0.00 82 1019.6
20260508114705 11 8 0.0 1.6 0.00 0.00 0.00 82 1019.7
20260508113943 11 8 0.0 1.6 0.00 0.00 0.00 82 1019.7
20260508113440 11 8 0.0 1.6 0.00 0.00 0.00 82 1019.6
20260508112938 11 8 0.0 1.6 0.00 0.00 0.00 82 1019.5
20260508112438 11 8 0.0 1.6 0.00 0.00 0.00 81 1019.5
20260508111939 11 8 0.0 1.6 0.00 0.00 0.00 81 1019.4
20260508111432 11 8 0.0 1.6 0.00 0.00 0.00 80 1019.3
20260508110930 11 8 0.0 1.6 0.00 0.00 0.00 80 1019.3
20260508110428 11 8 1.6 3.2 0.00 0.00 0.00 80 1019.3
20260508105929 11 8 1.6 3.2 0.00 0.00 0.00 80 1019.3
20260508105407 11 8 0.0 1.6 0.00 0.00 0.00 79 1019.3
20260508104909 11 8 0.0 1.6 0.00 0.00 0.00 78 1019.3
20260508104405 11 8 0.0 1.6 0.00 0.00 0.00 78 1019.2
20260508103905 12 8 0.0 1.6 0.00 0.00 0.00 77 1019.2
20260508103405 12 8 0.0 1.6 0.00 0.00 0.00 77 1019.2
20260508102906 12 8 0.0 1.6 0.00 0.00 0.00 77 1019.2
20260508102628 12 8 0.0 1.6 0.00 0.00 0.00 76 1019.2
20260508101906 12 8 0.0 3.2 0.00 0.00 0.00 76 1019.2
20260508101406 12 8 0.0 3.2 0.00 0.00 0.00 75 1019.2
20260508100903 12 8 0.0 1.6 0.00 0.00 0.00 75 1019.2
20260508100402 12 8 0.0 1.6 0.00 0.00 0.00 74 1019.2
20260508095859 12 8 0.0 1.6 0.00 0.00 0.00 74 1019.1
20260508095357 13 8 0.0 1.6 0.00 0.00 0.00 73 1019.0
20260508094859 13 8 0.0 1.6 0.00 0.00 0.00 73 1018.9
20260508094623 13 8 0.0 1.6 0.00 0.00 0.00 73 1019.0
20260508093858 13 8 0.0 1.6 0.00 0.00 0.00 72 1019.0
20260508093615 13 8 1.6 3.2 0.00 0.00 0.00 72 1019.0
20260508093500 13 8 1.6 3.2 0.00 0.00 0.00 72 1019.0
20260508092618 13 8 0.0 1.6 0.00 0.00 0.00 71 1018.9
20260508091830 13 8 0.0 1.6 0.00 0.00 0.00 70 1018.9
20260508091541 14 8 0.0 1.6 0.00 0.00 0.00 69 1018.8
20260508091033 14 8 0.0 1.6 0.00 0.00 0.00 68 1018.7
20260508090256 14 8 0.0 1.6 0.00 0.00 0.00 67 1018.5
20260508085756 14 8 0.0 1.6 0.00 0.00 0.00 67 1018.5
20260508085253 15 8 0.0 1.6 0.00 0.00 0.00 67 1018.5
20260508084511 15 8 0.0 1.6 0.00 0.00 0.00 66 1018.4
20260508083750 15 8 0.0 1.6 0.00 0.00 0.00 64 1018.3
20260508083250 15 8 0.0 1.6 0.00 0.00 0.00 63 1018.2
20260508082748 16 8 0.0 1.6 0.00 0.00 0.00 63 1018.2
20260508082242 16 8 0.0 1.6 0.00 0.00 0.00 63 1018.1
20260508081739 16 8 0.0 1.6 0.00 0.00 0.00 62 1018.0
20260508081238 16 8 0.0 1.6 0.00 0.00 0.00 60 1017.8
20260508081000 16 8 0.0 1.6 0.00 0.00 0.00 60 1017.7
20260508080235 17 8 0.0 1.6 0.00 0.00 0.00 59 1017.7
20260508075737 17 8 0.0 1.6 0.00 0.00 0.00 58 1017.6
20260508075237 17 8 0.0 0.0 0.00 0.00 0.00 57 1017.6
20260508074723 17 8 0.0 0.0 0.00 0.00 0.00 56 1017.6
20260508074224 17 8 0.0 1.6 0.00 0.00 0.00 55 1017.5
20260508073941 18 8 0.0 1.6 0.00 0.00 0.00 54 1017.5
20260508073222 18 8 0.0 1.6 0.00 0.00 0.00 53 1017.4
20260508072722 18 8 0.0 1.6 0.00 0.00 0.00 51 1017.4
20260508072220 18 8 0.0 3.2 0.00 0.00 0.00 51 1017.4
20260508071717 18 8 0.0 3.2 0.00 0.00 0.00 49 1017.3
20260508071654 18 8 0.0 3.2 0.00 0.00 0.00 47 1017.4
20260508070929 19 8 1.6 4.8 0.00 0.00 0.00 47 1017.3
20260508070208 19 8 1.6 4.8 0.00 0.00 0.00 46 1017.2
20260508065706 20 8 1.6 4.8 0.00 0.00 0.00 45 1017.2
20260508065207 20 8 1.6 6.4 0.00 0.00 0.00 45 1017.2
20260508064639 20 8 3.2 6.4 0.00 0.00 0.00 43 1017.1
20260508064140 20 10 3.2 6.4 0.00 0.00 0.00 42 1017.0
20260508063635 20 10 3.2 6.4 0.00 0.00 0.00 41 1017.0
20260508063134 21 8 3.2 6.4 0.00 0.00 0.00 40 1016.8
20260508062631 21 8 3.2 6.4 0.00 0.00 0.00 40 1016.8
20260508062131 21 357 3.2 8.0 0.00 0.00 0.00 38 1016.8
20260508061633 22 356 4.8 9.7 0.00 0.00 0.00 37 1016.8
20260508061410 22 339 4.8 9.7 0.00 0.00 0.00 35 1016.8
20260508060627 22 347 1.6 8.0 0.00 0.00 0.00 35 1016.8
20260508060126 22 2 3.2 6.4 0.00 0.00 0.00 36 1016.8
20260508055620 22 2 3.2 6.4 0.00 0.00 0.00 35 1016.8
20260508055119 22 358 1.6 4.8 0.00 0.00 0.00 36 1016.7
20260508054616 23 22 3.2 8.0 0.00 0.00 0.00 33 1016.8
20260508054113 23 338 3.2 9.7 0.00 0.00 0.00 28 1016.8
20260508053619 23 316 3.2 9.7 0.00 0.00 0.00 29 1016.8
20260508053109 23 225 1.6 8.0 0.00 0.00 0.00 29 1016.9
20260508052623 23 292 1.6 8.0 0.00 0.00 0.00 29 1016.9
20260508052058 23 294 1.6 8.0 0.00 0.00 0.00 27 1016.9
20260508051345 23 310 1.6 9.7 0.00 0.00 0.00 27 1016.9
20260508050808 23 245 1.6 9.7 0.00 0.00 0.00 27 1016.9
20260508050535 23 340 3.2 9.7 0.00 0.00 0.00 27 1017.0
20260508045803 23 233 1.6 8.0 0.00 0.00 0.00 26 1017.1
20260508045301 23 312 1.6 8.0 0.00 0.00 0.00 27 1017.2
20260508044759 23 284 1.6 8.0 0.00 0.00 0.00 28 1017.3
20260508044302 23 294 3.2 6.4 0.00 0.00 0.00 26 1017.2
20260508044019 23 240 3.2 8.0 0.00 0.00 0.00 26 1017.1
20260508043247 23 260 1.6 14.5 0.00 0.00 0.00 27 1017.2
20260508042719 23 308 3.2 14.5 0.00 0.00 0.00 28 1017.2
20260508042200 23 247 4.8 16.1 0.00 0.00 0.00 27 1017.2
20260508041702 23 229 4.8 16.1 0.00 0.00 0.00 25 1017.2
20260508041131 23 224 3.2 12.9 0.00 0.00 0.00 24 1017.2
20260508040607 23 240 3.2 8.0 0.00 0.00 0.00 28 1017.3
20260508040052 23 240 3.2 8.0 0.00 0.00 0.00 27 1017.4
20260508035517 23 221 3.2 11.3 0.00 0.00 0.00 28 1017.4
20260508034944 23 246 3.2 11.3 0.00 0.00 0.00 28 1017.5
20260508034416 23 281 3.2 9.7 0.00 0.00 0.00 28 1017.6
20260508033851 23 242 3.2 8.0 0.00 0.00 0.00 29 1017.7
20260508033326 23 209 3.2 11.3 0.00 0.00 0.00 27 1017.7
20260508032801 23 314 3.2 9.7 0.00 0.00 0.00 28 1017.8
20260508032235 22 308 3.2 9.7 0.00 0.00 0.00 29 1017.8
20260508031725 22 216 3.2 11.3 0.00 0.00 0.00 27 1018.0